Location: *
(50.9167°S, 179.4000°W)
Time: 12:00:33
(UTC+00:00)

CZ-2C R/B - Visible Passes

Search period start: 18 June 2024 00:00
Search period end: 28 June 2024 00:00
Orbit: 665 x 780 km, 98.4° (Epoch: 17 June)

Date Brightness Start Highest point End Pass type
(mag) Time Alt. Az. Time Alt. Az. Time Alt. Az.
18 Jun 5.0 05:36:20 10° SSW 05:39:34 17° SW 05:42:46 10° W visible
19 Jun 4.0 04:46:10 10° S 04:50:54 35° WSW 04:55:34 10° NW visible
20 Jun 5.0 05:36:00 10° SSW 05:39:14 17° SW 05:42:28 10° W visible
21 Jun 4.0 04:45:50 10° S 04:50:35 35° WSW 04:55:14 10° NW visible
22 Jun 5.0 05:35:40 10° SSW 05:38:55 17° SW 05:42:08 10° W visible
23 Jun 4.0 04:45:31 10° S 04:50:15 35° WSW 04:54:53 10° NW visible
24 Jun 5.0 05:35:20 10° SSW 05:38:35 17° SW 05:41:49 10° W visible
25 Jun 4.0 04:45:11 10° S 04:49:55 35° WSW 04:54:32 10° NW visible
26 Jun 5.0 05:35:00 10° SSW 05:38:15 17° SW 05:41:27 10° W visible
27 Jun 4.0 04:44:51 10° S 04:49:35 36° WSW 04:54:11 10° NW visible
